TimeAKST,TemperatureF,Dew PointF,Humidity,Sea Level PressureIn,VisibilityMPH,Wind Direction,Wind SpeedMPH,Gust SpeedMPH,PrecipitationIn,Events,Conditions,WindDirDegrees,DateUTC
12:53 AM,21.9,12.9,68,30.15,10.0,Calm,Calm,-,N/A,,Clear,0,2014-02-25 09:53:00
1:53 AM,24.1,15.1,69,30.15,10.0,Calm,Calm,-,N/A,,Clear,0,2014-02-25 10:53:00
3:53 AM,23.0,14.0,68,30.15,10.0,Calm,Calm,-,N/A,,Clear,0,2014-02-25 12:53:00
4:53 AM,23.0,14.0,68,30.15,10.0,WSW,3.5,-,N/A,,Clear,240,2014-02-25 13:53:00
5:53 AM,21.0,14.0,74,30.16,10.0,WSW,3.5,-,N/A,,Clear,240,2014-02-25 14:53:00
6:53 AM,21.9,14.0,72,30.16,10.0,WSW,3.5,-,N/A,,Clear,240,2014-02-25 15:53:00
7:53 AM,28.0,16.0,61,30.16,10.0,Calm,Calm,-,N/A,,Clear,0,2014-02-25 16:53:00
8:53 AM,32.0,19.0,59,30.16,10.0,Calm,Calm,-,N/A,,Clear,0,2014-02-25 17:53:00
9:53 AM,35.1,24.1,64,30.17,10.0,Calm,Calm,-,N/A,,Mostly Cloudy,0,2014-02-25 18:53:00
10:53 AM,36.0,26.1,67,30.17,10.0,NNW,4.6,-,N/A,,Overcast,330,2014-02-25 19:53:00
11:53 AM,39.0,26.1,60,30.17,10.0,Calm,Calm,-,N/A,,Overcast,0,2014-02-25 20:53:00
12:53 PM,42.1,21.9,45,30.16,10.0,Calm,Calm,-,N/A,,Overcast,0,2014-02-25 21:53:00
1:53 PM,42.1,25.0,51,30.14,10.0,Calm,Calm,-,N/A,,Overcast,0,2014-02-25 22:53:00
2:53 PM,44.1,23.0,43,30.14,10.0,Calm,Calm,-,N/A,,Overcast,0,2014-02-25 23:53:00
3:53 PM,42.1,27.0,55,30.12,10.0,Calm,Calm,-,N/A,,Overcast,0,2014-02-26 00:53:00
4:53 PM,41.0,28.0,60,30.11,10.0,Calm,Calm,-,N/A,,Overcast,0,2014-02-26 01:53:00
5:53 PM,37.9,28.0,68,30.10,10.0,Calm,Calm,-,N/A,,Overcast,0,2014-02-26 02:53:00
6:53 PM,37.0,28.0,70,30.08,10.0,Calm,Calm,-,N/A,,Overcast,0,2014-02-26 03:53:00
7:53 PM,35.1,28.0,76,30.07,10.0,Calm,Calm,-,N/A,,Mostly Cloudy,0,2014-02-26 04:53:00
8:53 PM,33.1,28.0,82,30.06,10.0,SW,3.5,-,N/A,,Clear,230,2014-02-26 05:53:00
9:53 PM,33.1,28.0,82,30.05,10.0,Calm,Calm,-,N/A,,Clear,0,2014-02-26 06:53:00
10:53 PM,30.9,27.0,85,30.04,10.0,WNW,3.5,-,N/A,,Clear,300,2014-02-26 07:53:00
11:53 PM,33.1,28.9,85,30.03,10.0,WNW,5.8,-,N/A,,Clear,300,2014-02-26 08:53:00